| time (UTC) | temp F | wind direction | speed MPH | gust MPH | rain 1hr in | rain 24hr in | rain mn in | humidity % | barometer mb |
| 20260503232003 | 59 | 239 | 1.0 | 7.0 | 0.00 | 0.00 | 0.00 | 73 | 1012.6 |
| 20260503231524 | 59 | 243 | 1.0 | 4.0 | 0.00 | 0.00 | 0.00 | 73 | 1012.6 |
| 20260503231003 | 58 | 240 | 1.0 | 6.0 | 0.00 | 0.00 | 0.00 | 74 | 1012.6 |
| 20260503230503 | 58 | 233 | 2.0 | 6.0 | 0.00 | 0.00 | 0.00 | 74 | 1012.6 |
| 20260503230024 | 58 | 230 | 2.0 | 7.0 | 0.00 | 0.00 | 0.00 | 73 | 1012.6 |
| 20260503225524 | 58 | 231 | 2.0 | 7.0 | 0.00 | 0.00 | 0.00 | 73 | 1012.6 |
| 20260503225003 | 58 | 237 | 2.0 | 7.0 | 0.00 | 0.00 | 0.00 | 73 | 1012.6 |
| 20260503224503 | 59 | 226 | 2.0 | 5.0 | 0.00 | 0.00 | 0.00 | 73 | 1012.6 |
| 20260503224003 | 59 | 257 | 1.0 | 5.0 | 0.00 | 0.00 | 0.00 | 73 | 1012.6 |
| 20260503223503 | 59 | 285 | 1.0 | 4.0 | 0.00 | 0.00 | 0.00 | 73 | 1012.6 |
| 20260503223003 | 59 | 247 | 1.0 | 6.0 | 0.00 | 0.00 | 0.00 | 73 | 1012.6 |
| 20260503222503 | 59 | 248 | 1.0 | 6.0 | 0.00 | 0.00 | 0.00 | 73 | 1012.6 |
| 20260503222003 | 60 | 266 | 2.0 | 5.0 | 0.00 | 0.00 | 0.00 | 72 | 1012.6 |
| 20260503221503 | 60 | 294 | 1.0 | 5.0 | 0.00 | 0.00 | 0.00 | 72 | 1012.6 |
| 20260503221003 | 60 | 268 | 1.0 | 5.0 | 0.00 | 0.00 | 0.00 | 71 | 1012.7 |
| 20260503220503 | 60 | 243 | 2.0 | 5.0 | 0.00 | 0.00 | 0.00 | 70 | 1012.7 |
| 20260503220003 | 61 | 264 | 2.0 | 6.0 | 0.00 | 0.00 | 0.00 | 70 | 1012.7 |
| 20260503215503 | 61 | 262 | 2.0 | 6.0 | 0.00 | 0.00 | 0.00 | 71 | 1012.7 |
| 20260503215003 | 61 | 246 | 2.0 | 8.0 | 0.00 | 0.00 | 0.00 | 72 | 1012.7 |
| 20260503214503 | 60 | 243 | 2.0 | 8.0 | 0.00 | 0.00 | 0.00 | 71 | 1012.7 |
| 20260503214003 | 60 | 239 | 2.0 | 5.0 | 0.00 | 0.00 | 0.00 | 72 | 1012.7 |
| 20260503213524 | 60 | 263 | 1.0 | 4.0 | 0.00 | 0.00 | 0.00 | 73 | 1012.7 |
| 20260503213024 | 60 | 353 | 1.0 | 4.0 | 0.00 | 0.00 | 0.00 | 74 | 1012.7 |
| 20260503212524 | 60 | 250 | 1.0 | 5.0 | 0.00 | 0.00 | 0.00 | 74 | 1012.7 |
| 20260503212003 | 60 | 227 | 1.0 | 5.0 | 0.00 | 0.00 | 0.00 | 73 | 1012.7 |
| 20260503211524 | 60 | 246 | 1.0 | 5.0 | 0.00 | 0.00 | 0.00 | 73 | 1012.7 |
| 20260503211003 | 60 | 262 | 1.0 | 5.0 | 0.00 | 0.00 | 0.00 | 73 | 1012.7 |
| 20260503210503 | 60 | 263 | 1.0 | 4.0 | 0.00 | 0.00 | 0.00 | 73 | 1012.7 |
| 20260503210024 | 60 | 258 | 1.0 | 7.0 | 0.00 | 0.00 | 0.00 | 72 | 1012.7 |
| 20260503205503 | 60 | 230 | 1.0 | 7.0 | 0.00 | 0.00 | 0.00 | 72 | 1012.7 |
| 20260503205003 | 60 | 226 | 2.0 | 5.0 | 0.00 | 0.00 | 0.00 | 72 | 1012.7 |
| 20260503204503 | 60 | 238 | 2.0 | 7.0 | 0.00 | 0.00 | 0.00 | 72 | 1012.7 |
| 20260503204003 | 60 | 244 | 3.0 | 8.0 | 0.00 | 0.00 | 0.00 | 72 | 1012.7 |
| 20260503203503 | 60 | 240 | 3.0 | 8.0 | 0.00 | 0.00 | 0.00 | 70 | 1012.7 |
| 20260503203003 | 61 | 231 | 3.0 | 8.0 | 0.00 | 0.00 | 0.00 | 70 | 1012.7 |
| 20260503202503 | 61 | 228 | 2.0 | 8.0 | 0.00 | 0.00 | 0.00 | 70 | 1012.7 |
| 20260503202003 | 61 | 241 | 2.0 | 9.0 | 0.00 | 0.00 | 0.00 | 71 | 1012.7 |
| 20260503201503 | 60 | 242 | 2.0 | 9.0 | 0.00 | 0.00 | 0.00 | 73 | 1012.7 |
| 20260503201003 | 60 | 228 | 2.0 | 6.0 | 0.00 | 0.00 | 0.00 | 73 | 1010.9 |
| 20260503200503 | 60 | 237 | 2.0 | 7.0 | 0.00 | 0.00 | 0.00 | 74 | 1010.9 |
| 20260503200003 | 59 | 234 | 2.0 | 7.0 | 0.00 | 0.00 | 0.00 | 74 | 1010.9 |
| 20260503195503 | 59 | 232 | 3.0 | 7.0 | 0.00 | 0.00 | 0.00 | 73 | 1010.9 |
| 20260503195024 | 59 | 231 | 2.0 | 7.0 | 0.00 | 0.00 | 0.00 | 75 | 1010.9 |
| 20260503194503 | 58 | 219 | 2.0 | 6.0 | 0.00 | 0.00 | 0.00 | 74 | 1010.9 |
| 20260503194003 | 58 | 220 | 2.0 | 9.0 | 0.00 | 0.00 | 0.00 | 74 | 1010.9 |
| 20260503193503 | 58 | 226 | 2.0 | 9.0 | 0.00 | 0.00 | 0.00 | 73 | 1010.9 |
| 20260503193024 | 59 | 221 | 2.0 | 7.0 | 0.00 | 0.00 | 0.00 | 74 | 1010.9 |
| 20260503192503 | 58 | 222 | 3.0 | 8.0 | 0.00 | 0.00 | 0.00 | 73 | 1010.9 |
| 20260503192024 | 59 | 232 | 2.0 | 8.0 | 0.00 | 0.00 | 0.00 | 74 | 1010.9 |
| 20260503191503 | 59 | 247 | 2.0 | 8.0 | 0.00 | 0.00 | 0.00 | 76 | 1010.9 |
| 20260503191003 | 58 | 243 | 2.0 | 5.0 | 0.00 | 0.00 | 0.00 | 77 | 1010.9 |
| 20260503190503 | 58 | 223 | 2.0 | 5.0 | 0.00 | 0.00 | 0.00 | 79 | 1010.9 |
| 20260503190003 | 58 | 231 | 1.0 | 7.0 | 0.00 | 0.00 | 0.00 | 81 | 1010.9 |
| 20260503185503 | 57 | 237 | 1.0 | 7.0 | 0.00 | 0.00 | 0.00 | 81 | 1010.9 |
| 20260503185003 | 57 | 233 | 1.0 | 5.0 | 0.00 | 0.00 | 0.00 | 82 | 1010.9 |
| 20260503184524 | 57 | 246 | 1.0 | 4.0 | 0.00 | 0.00 | 0.00 | 83 | 1010.9 |
| 20260503184003 | 56 | 237 | 1.0 | 5.0 | 0.00 | 0.00 | 0.00 | 82 | 1010.9 |
| 20260503183503 | 56 | 233 | 1.0 | 5.0 | 0.00 | 0.00 | 0.00 | 83 | 1010.9 |
| 20260503183024 | 56 | 227 | 1.0 | 5.0 | 0.00 | 0.00 | 0.00 | 82 | 1010.9 |
| 20260503182503 | 56 | 215 | 2.0 | 6.0 | 0.00 | 0.00 | 0.00 | 83 | 1010.9 |
| 20260503182003 | 56 | 228 | 2.0 | 6.0 | 0.00 | 0.00 | 0.00 | 83 | 1010.9 |
| 20260503181504 | 56 | 245 | 1.0 | 4.0 | 0.00 | 0.00 | 0.00 | 83 | 1010.9 |
| 20260503181003 | 55 | 238 | 1.0 | 6.0 | 0.00 | 0.00 | 0.00 | 83 | 1010.9 |
| 20260503180503 | 55 | 238 | 2.0 | 6.0 | 0.00 | 0.00 | 0.00 | 83 | 1010.9 |
| 20260503180004 | 55 | 243 | 2.0 | 6.0 | 0.00 | 0.00 | 0.00 | 83 | 1010.9 |
| 20260503175503 | 55 | 244 | 2.0 | 11.0 | 0.00 | 0.00 | 0.00 | 83 | 1010.9 |
| 20260503175003 | 55 | 243 | 2.0 | 11.0 | 0.00 | 0.00 | 0.00 | 84 | 1010.9 |
| 20260503174524 | 55 | 231 | 2.0 | 11.0 | 0.00 | 0.00 | 0.00 | 85 | 1010.9 |
| 20260503174024 | 55 | 232 | 2.0 | 5.0 | 0.00 | 0.00 | 0.00 | 85 | 1010.9 |
| 20260503173524 | 55 | 241 | 2.0 | 6.0 | 0.00 | 0.00 | 0.00 | 86 | 1010.9 |
| 20260503173003 | 55 | 236 | 2.0 | 7.0 | 0.00 | 0.00 | 0.00 | 87 | 1010.9 |
| 20260503172503 | 55 | 227 | 1.0 | 7.0 | 0.00 | 0.00 | 0.00 | 88 | 1010.9 |
| 20260503172003 | 55 | 228 | 1.0 | 4.0 | 0.00 | 0.00 | 0.00 | 88 | 1010.9 |
| 20260503171503 | 54 | 225 | 1.0 | 5.0 | 0.00 | 0.00 | 0.00 | 89 | 1010.9 |
| 20260503171003 | 54 | 211 | 1.0 | 5.0 | 0.00 | 0.00 | 0.00 | 89 | 1010.9 |
| 20260503170503 | 54 | 222 | 1.0 | 8.0 | 0.00 | 0.00 | 0.00 | 89 | 1010.9 |
| 20260503151003 | 52 | 198 | 0.0 | 4.0 | 0.00 | 0.00 | 0.00 | 90 | 1010.9 |
| 20260503150503 | 52 | 189 | 0.0 | 4.0 | 0.00 | 0.00 | 0.00 | 90 | 1010.9 |
| 20260503131003 | 51 | 234 | 0.0 | 3.0 | 0.00 | 0.00 | 0.00 | 89 | 1010.9 |
| 20260503130503 | 51 | 236 | 0.0 | 2.0 | 0.00 | 0.00 | 0.00 | 89 | 1010.9 |
| 20260503110502 | 51 | 237 | 1.0 | 7.0 | 0.00 | 0.00 | 0.00 | 88 | 1010.9 |
| 20260503081523 | 51 | 247 | 0.0 | 5.0 | 0.00 | 0.00 | 0.00 | 89 | 1013.2 |
| 20260503081023 | 51 | 249 | 0.0 | 2.0 | 0.00 | 0.00 | 0.00 | 88 | 1013.2 |
| 20260503080523 | 51 | 244 | 0.0 | 2.0 | 0.00 | 0.00 | 0.00 | 88 | 1013.2 |
| 20260503072502 | 51 | 249 | 0.0 | 3.0 | 0.00 | 0.00 | 0.00 | 88 | 1013.2 |
| 20260503072003 | 51 | 246 | 0.0 | 4.0 | 0.00 | 0.00 | 0.00 | 88 | 1013.2 |
| 20260503071503 | 51 | 259 | 0.0 | 4.0 | 0.00 | 0.00 | 0.00 | 88 | 1013.2 |
| 20260503071002 | 51 | 285 | 0.0 | 2.0 | 0.00 | 0.00 | 0.00 | 88 | 1013.2 |
| 20260503070502 | 51 | 288 | 0.0 | 1.0 | 0.00 | 0.00 | 0.00 | 88 | 1013.2 |
| 20260503055023 | 52 | 242 | 0.0 | 4.0 | 0.00 | 0.00 | 0.00 | 88 | 1013.2 |
| 20260503054502 | 52 | 227 | 0.0 | 1.0 | 0.00 | 0.00 | 0.00 | 88 | 1013.2 |
| 20260503054002 | 52 | 299 | 0.0 | 2.0 | 0.00 | 0.00 | 0.00 | 88 | 1013.2 |
| 20260503053502 | 52 | 237 | 1.0 | 6.0 | 0.00 | 0.00 | 0.00 | 88 | 1013.2 |
| 20260503053024 | 52 | 232 | 1.0 | 6.0 | 0.00 | 0.00 | 0.00 | 87 | 1013.2 |
| 20260503052502 | 52 | 237 | 0.0 | 4.0 | 0.00 | 0.00 | 0.00 | 87 | 1013.2 |
| 20260503052002 | 52 | 215 | 0.0 | 3.0 | 0.00 | 0.00 | 0.00 | 87 | 1013.2 |
| 20260503051526 | 52 | 211 | 0.0 | 3.0 | 0.00 | 0.00 | 0.00 | 87 | 1013.2 |
| 20260503051002 | 52 | 183 | 0.0 | 4.0 | 0.00 | 0.00 | 0.00 | 88 | 1013.2 |
| 20260503050503 | 52 | 177 | 0.0 | 4.0 | 0.00 | 0.00 | 0.00 | 88 | 1013.2 |
| 20260503050006 | 52 | 199 | 0.0 | 3.0 | 0.00 | 0.00 | 0.00 | 88 | 1013.2 |
| 20260503045502 | 52 | 229 | 0.0 | 4.0 | 0.00 | 0.00 | 0.00 | 88 | 1013.2 |
| 20260503045002 | 52 | 235 | 0.0 | 4.0 | 0.00 | 0.00 | 0.00 | 87 | 1013.2 |
| 20260503044502 | 52 | 249 | 1.0 | 5.0 | 0.00 | 0.00 | 0.00 | 88 | 1013.2 |
| 20260503044002 | 52 | 259 | 0.0 | 5.0 | 0.00 | 0.00 | 0.00 | 88 | 1013.2 |
| 20260503043502 | 52 | 259 | 0.0 | 3.0 | 0.00 | 0.00 | 0.00 | 88 | 1013.2 |
| 20260503043002 | 52 | 304 | 0.0 | 3.0 | 0.00 | 0.00 | 0.00 | 87 | 1013.2 |
| 20260503042523 | 52 | 265 | 0.0 | 3.0 | 0.00 | 0.00 | 0.00 | 87 | 1013.2 |
| 20260503042023 | 52 | 252 | 0.0 | 2.0 | 0.00 | 0.00 | 0.00 | 87 | 1013.2 |
| 20260503041502 | 52 | 283 | 0.0 | 5.0 | 0.00 | 0.00 | 0.00 | 87 | 1013.2 |
| 20260503041002 | 52 | 276 | 0.0 | 5.0 | 0.00 | 0.00 | 0.00 | 87 | 1013.2 |
| 20260503040523 | 52 | 258 | 0.0 | 5.0 | 0.00 | 0.00 | 0.00 | 87 | 1013.2 |
| 20260503040002 | 52 | 273 | 0.0 | 5.0 | 0.00 | 0.00 | 0.00 | 87 | 1013.2 |
| 20260503035523 | 52 | 260 | 0.0 | 5.0 | 0.00 | 0.00 | 0.00 | 87 | 1013.2 |
| 20260503035002 | 52 | 290 | 0.0 | 3.0 | 0.00 | 0.00 | 0.00 | 87 | 1013.2 |
| 20260503034503 | 52 | 288 | 0.0 | 3.0 | 0.00 | 0.00 | 0.00 | 87 | 1013.2 |
| 20260503034002 | 52 | 275 | 0.0 | 2.0 | 0.00 | 0.00 | 0.00 | 87 | 1013.2 |
| 20260503033502 | 52 | 257 | 0.0 | 2.0 | 0.00 | 0.00 | 0.00 | 87 | 1013.2 |
| 20260503033002 | 52 | 208 | 0.0 | 2.0 | 0.00 | 0.00 | 0.00 | 86 | 1013.2 |
| 20260503032523 | 52 | 267 | 0.0 | 7.0 | 0.00 | 0.00 | 0.00 | 86 | 1013.2 |
| 20260503032002 | 52 | 274 | 1.0 | 7.0 | 0.00 | 0.00 | 0.00 | 86 | 1013.2 |
| 20260503031502 | 52 | 266 | 1.0 | 7.0 | 0.00 | 0.00 | 0.00 | 86 | 1013.2 |
| 20260503031002 | 52 | 290 | 1.0 | 7.0 | 0.00 | 0.00 | 0.00 | 85 | 1013.2 |
| 20260503030503 | 52 | 341 | 0.0 | 4.0 | 0.00 | 0.00 | 0.00 | 85 | 1013.2 |
| 20260503030024 | 52 | 349 | 0.0 | 4.0 | 0.00 | 0.00 | 0.00 | 85 | 1013.2 |
| 20260503025524 | 52 | 342 | 0.0 | 3.0 | 0.00 | 0.00 | 0.00 | 85 | 1013.2 |
| 20260503025002 | 53 | 343 | 0.0 | 4.0 | 0.00 | 0.00 | 0.00 | 85 | 1013.2 |
| 20260503024502 | 53 | 336 | 1.0 | 4.0 | 0.00 | 0.00 | 0.00 | 85 | 1013.2 |
| 20260503024002 | 53 | 328 | 1.0 | 4.0 | 0.00 | 0.00 | 0.00 | 84 | 1013.2 |
| 20260503023502 | 53 | 313 | 0.0 | 3.0 | 0.00 | 0.00 | 0.00 | 84 | 1013.2 |
| 20260503023002 | 53 | 296 | 0.0 | 3.0 | 0.00 | 0.00 | 0.00 | 84 | 1013.2 |
| 20260503022502 | 53 | 305 | 0.0 | 3.0 | 0.00 | 0.00 | 0.00 | 84 | 1013.2 |
| 20260503022002 | 53 | 310 | 0.0 | 3.0 | 0.00 | 0.00 | 0.00 | 83 | 1013.2 |
| 20260503021502 | 54 | 312 | 0.0 | 3.0 | 0.00 | 0.00 | 0.00 | 83 | 1013.2 |
| 20260503021002 | 54 | 323 | 0.0 | 3.0 | 0.00 | 0.00 | 0.00 | 83 | 1013.2 |
| 20260503020502 | 54 | 347 | 1.0 | 6.0 | 0.00 | 0.00 | 0.00 | 83 | 1013.2 |
| 20260503020002 | 54 | 356 | 1.0 | 6.0 | 0.00 | 0.00 | 0.00 | 83 | 1013.2 |
| 20260503015502 | 54 | 342 | 1.0 | 4.0 | 0.00 | 0.00 | 0.00 | 82 | 1013.2 |
| 20260503015002 | 54 | 317 | 1.0 | 5.0 | 0.00 | 0.00 | 0.00 | 82 | 1013.2 |
| 20260503014502 | 55 | 325 | 1.0 | 5.0 | 0.00 | 0.00 | 0.00 | 82 | 1013.2 |
| 20260503014002 | 55 | 10 | 1.0 | 4.0 | 0.00 | 0.00 | 0.00 | 82 | 1013.2 |
| 20260503013502 | 55 | 6 | 1.0 | 5.0 | 0.00 | 0.00 | 0.00 | 82 | 1013.2 |
| 20260503013002 | 55 | 308 | 1.0 | 5.0 | 0.00 | 0.00 | 0.00 | 81 | 1013.2 |
| 20260503012502 | 55 | 235 | 1.0 | 5.0 | 0.00 | 0.00 | 0.00 | 81 | 1013.2 |
| 20260503012002 | 55 | 260 | 1.0 | 5.0 | 0.00 | 0.00 | 0.00 | 81 | 1013.2 |
| 20260503011502 | 56 | 298 | 1.0 | 9.0 | 0.00 | 0.00 | 0.00 | 81 | 1013.2 |
| 20260503011002 | 56 | 322 | 1.0 | 9.0 | 0.00 | 0.00 | 0.00 | 81 | 1013.2 |
| 20260503010502 | 56 | 338 | 1.0 | 5.0 | 0.00 | 0.00 | 0.00 | 81 | 1013.2 |
| 20260503010002 | 56 | 327 | 1.0 | 5.0 | 0.00 | 0.00 | 0.00 | 80 | 1013.2 |
| 20260503005502 | 56 | 290 | 1.0 | 4.0 | 0.00 | 0.00 | 0.00 | 80 | 1013.2 |
| 20260503005002 | 57 | 323 | 1.0 | 6.0 | 0.00 | 0.00 | 0.00 | 81 | 1013.2 |
| 20260503004502 | 56 | 295 | 1.0 | 6.0 | 0.00 | 0.00 | 0.00 | 80 | 1013.2 |
| 20260503004023 | 57 | 309 | 1.0 | 8.0 | 0.00 | 0.00 | 0.00 | 80 | 1013.2 |
| 20260503003523 | 57 | 342 | 1.0 | 8.0 | 0.00 | 0.00 | 0.00 | 79 | 1013.2 |
| 20260503003023 | 57 | 330 | 1.0 | 4.0 | 0.00 | 0.00 | 0.00 | 79 | 1013.2 |
| 20260503002502 | 57 | 304 | 1.0 | 5.0 | 0.00 | 0.00 | 0.00 | 79 | 1013.2 |
| 20260503002002 | 57 | 331 | 1.0 | 5.0 | 0.00 | 0.00 | 0.00 | 79 | 1013.2 |
| 20260503001523 | 58 | 312 | 1.0 | 7.0 | 0.00 | 0.00 | 0.00 | 79 | 1013.2 |
| 20260503001002 | 58 | 312 | 2.0 | 10.0 | 0.00 | 0.00 | 0.00 | 79 | 1013.2 |
| 20260503000502 | 58 | 334 | 2.0 | 10.0 | 0.00 | 0.00 | 0.00 | 79 | 1013.2 |
| 20260503000023 | 58 | 342 | 1.0 | 6.0 | 0.00 | 0.00 | 0.00 | 80 | 1013.2 |
| 20260502235502 | 57 | 338 | 1.0 | 8.0 | 0.00 | 0.00 | 0.00 | 79 | 1013.2 |
| 20260502235002 | 57 | 331 | 1.0 | 8.0 | 0.00 | 0.00 | 0.00 | 78 | 1013.2 |
| 20260502234502 | 58 | 329 | 1.0 | 6.0 | 0.00 | 0.00 | 0.00 | 78 | 1013.2 |
| 20260502234002 | 58 | 338 | 2.0 | 7.0 | 0.00 | 0.00 | 0.00 | 78 | 1013.2 |
| 20260502233523 | 58 | 345 | 2.0 | 7.0 | 0.00 | 0.00 | 0.00 | 77 | 1013.2 |
| 20260502233002 | 59 | 348 | 1.0 | 7.0 | 0.00 | 0.00 | 0.00 | 77 | 1013.2 |
| 20260502232502 | 60 | 351 | 1.0 | 7.0 | 0.00 | 0.00 | 0.00 | 76 | 1013.2 |